Terug naar catalogus

STARLINK-34533

ActiefCommunicatieVLEO
NORAD 64715·PAYLOAD·🇺🇸 United States

Gelanceerd Jun 28, 2025 vanaf Vandenberg Space Force Base

Loading…

Volgende Passages (komende 24 uur)

TLE

VersSource: CelesTrak SupGP

Epoch: Sep 14, 2026, 23:10 UTC

1 64715C 25142V   26257.96576389 -.00026991  00000+0 -93922-3 0  2575
2 64715  70.0012 195.6311 0003585 269.7103  48.7502 15.29581966    19

Volg STARLINK-34533 in realtime met AllMySat

Download on the App Store